www.pogodaiklimat.ru

Погода и климат >> Архив погоды >> Австралия >> Западная Австралия >> Телфер


ПОГОДА в Телфере

  • Прогноз погоды в Телфере
  • Монитор погоды в Телфере

АРХИВ ПОГОДЫ в Телфере

Время (UTC), дата Ветер
(напр.,м/с)
 
Видим.   Явления Облачность Т
(С)
Тd
(С)
f
(%)
Тe
(С)
Тes
(С)
Комфортность P
(гПа)
Po
(гПа)
Тmin
(С)
Tmax
(С)
R
(мм)
R24
(мм)
S
(см)
07 19.03 В 5 н/о 1/0
[]
+39.8 +13.4 21 +40 +45 очень
душно
1004.0 971.8
09 19.03 СЗ 4 н/о н/о +37.9 +13.8 24 +38 +38 очень
жарко
1003.9 971.7
10 19.03 СЗ 2 н/о 1/0
[]
+37.1 +13.8 25 +38 +38 душно 1004.4 972.2
12 19.03 ЮЗ 3 н/о н/о +35.7 +13.8 27 +36 +36 очень
жарко
1005.8 973.6
13 19.03 ЮЗ 2 н/о 8/0
[]
+34.4 +14.3 30 +36 +36 душно 1006.2 973.9 +40.9
15 19.03 штиль 0 н/о н/о +31.5 +15.9 39 +34 +34 душно 1006.4 974.1
16 19.03 З 2 н/о н/о +31.2 +14.8 37 +33 +33 жарко 1005.9 973.7
18 19.03 ЮЗ 4 н/о н/о +31.1 +16.7 42 +34 +34 душно 1005.0 972.8
19 19.03 ЮЗ 4 н/о н/о +30.8 +16.8 43 +34 +34 очень
душно
1004.7 972.5
21 19.03 ЮЗ 4 н/о н/о +29.6 +16.8 46 +33 +33 душно 1005.2 973.0
22 19.03 Ю 1 н/о н/о +28.9 +16.1 46 +32 +32 душно 1005.7 973.5
00 20.03 Ю 4 н/о н/о +33.0 +15.0 34 +35 +35 душно 1007.0 974.7
01 20.03 ЮВ 5 н/о н/о +36.6 +14.6 27 +38 +38 очень
душно
1007.4 975.1 +28.1
03 20.03 СВ 5 н/о н/о +39.7 +9.2 16 +38 +38 очень
жарко
1006.5 974.2
04 20.03 В 4 н/о н/о +40.5 +8.8 15 +39 +39 очень
жарко
1005.7 973.5
06 20.03 С 6 н/о н/о +41.8 +8.8 14 +40 +40 очень
жарко
1004.5 972.3
07 20.03 В 3 н/о 1/0
[]
+40.5 +8.8 15 +39 +45 очень
жарко
1004.3 972.1
09 20.03 С 5 н/о н/о +39.2 +10.5 18 +38 +38 очень
жарко
1004.5 972.3
10 20.03 С 4 н/о н/о +37.9 +11.8 21 +37 +37 очень
жарко
1004.6 972.4
12 20.03 С 2 н/о н/о +34.9 +13.7 28 +36 +36 душно 1006.6 974.3
13 20.03 С 2 н/о 1/0
[]
+34.2 +14.7 31 +36 +36 душно 1006.9 974.6 +42.6
15 20.03 СЗ 3 н/о н/о +32.0 +17.1 41 +36 +36 очень
душно
1006.9 974.6
16 20.03 СЗ 3 н/о н/о +31.3 +18.6 47 +36 +36 очень
душно
1006.7 974.4
18 20.03 З 4 н/о н/о +30.4 +19.7 53 +37 +37 очень
душно
1005.7 973.5
19 20.03 З 4 н/о 9/0
[]
+30.1 +21.2 59 +38 +38 очень
душно
1005.4 973.2
21 20.03 З 4 н/о н/о +28.9 +21.9 66 +37 +37 очень
душно
1006.3 974.0
22 20.03 СЗ 3 н/о н/о +27.9 +22.2 71 +36 +36 очень
душно
1006.7 974.4
00 21.03 СЗ 5 н/о н/о +30.4 +21.8 60 +39 +39 очень
душно
1008.1 975.8
01 21.03 СЗ 5 н/о н/о +31.9 +21.1 53 +40 +40 очень
душно
1008.4 976.1 +27.9
03 21.03 Ю 3 н/о н/о +34.8 +18.8 39 +40 +40 очень
душно
1007.7 975.4
04 21.03 С 3 н/о н/о +36.5 +17.6 33 +40 +40 очень
душно
1006.7 974.4
06 21.03 СЗ 5 н/о н/о +38.4 +16.7 28 +41 +41 опасность
перегрева
1004.8 972.6
07 21.03 СВ 4 н/о н/о +38.6 +15.7 26 +40 +40 очень
душно
1004.2 972.0
09 21.03 СВ 6 н/о н/о +37.9 +15.7 27 +40 +40 очень
душно
1004.0 971.8
10 21.03 С 4 н/о 5/0
[]
+36.7 +16.3 30 +39 +39 очень
душно
1004.8 972.6
12 21.03 СЗ 5 н/о н/о +34.7 +17.9 37 +39 +39 очень
душно
1006.2 973.9
13 21.03 СЗ 4 н/о 10/0
[]
+33.2 +17.8 40 +37 +37 очень
душно
1006.4 974.1 +40.1
15 21.03 СЗ 3 н/о н/о +32.0 +18.6 45 +37 +37 очень
душно
1006.3 974.0
16 21.03 СЗ 4 н/о 10/0
[]
+31.1 +19.4 50 +37 +37 очень
душно
1005.8 973.6
18 21.03 СЗ 5 н/о н/о +30.3 +21.4 59 +38 +38 очень
душно
1005.8 973.6
22 21.03 З 4 н/о 10/0
[]
+29.2 +21.2 62 +37 +37 очень
душно
1006.5 974.2
01 22.03 З 3 н/о 9/0
[]
+31.0 +21.2 56 +39 +44 очень
душно
1007.8 975.5 +29.2
03 22.03 С 3 н/о н/о +35.0 +20.9 44 +42 +42 опасность
перегрева
1006.8 974.5
04 22.03 З 2 н/о 1/1 1500 м
[]
+36.1 +19.9 39 +42 +59 опасность
перегрева
1005.5 973.3
06 22.03 С 6 н/о н/о +38.6 +17.9 30 +42 +42 опасность
перегрева
1003.8 971.6
07 22.03 С 5 н/о 9/0 2000 м
[]
+37.8 +17.7 31 +41 +43 опасность
перегрева
1003.2 971.0
09 22.03 С 5 н/о н/о +36.6 +17.7 33 +40 +40 очень
душно
1003.5 971.3
10 22.03 ЮВ 7 н/о 9/0 2000 м
[]
+33.0 +18.0 41 +37 +37 очень
душно
1004.8 972.6
12 22.03 Ю 3 н/о н/о +31.0 +17.0 43 +35 +35 очень
душно
1006.6 974.3
13 22.03 Ю 3 н/о н/о +31.0 +17.3 44 +35 +35 очень
душно
1006.7 974.4 +39.0
15 22.03 Ю 2 н/о н/о +31.1 +15.5 39 +34 +34 душно 1006.2 973.9
16 22.03 З 2 н/о 9/0
[]
+31.4 +15.4 38 +34 +34 душно 1005.7 973.5
18 22.03 СЗ 2 н/о н/о +29.6 +18.4 51 +34 +34 очень
душно
1004.9 972.7
19 22.03 ЮВ 4 н/о 10/0
[]
+29.4 +17.6 49 +34 +34 очень
душно
1005.0 972.8
21 22.03 СЗ 4 н/о н/о +28.8 +18.0 52 +33 +33 очень
душно
1005.1 972.9
22 22.03 СЗ 1 н/о н/о +27.9 +18.3 56 +33 +33 очень
душно
1005.1 972.9
00 23.03 ЮЗ 3 н/о н/о +31.7 +17.9 44 +36 +36 очень
душно
1006.0 973.8
01 23.03 ЮВ 6 н/о 1/0
[]
+33.8 +14.3 31 +35 +39 очень
жарко
1005.8 973.6 +27.9
03 23.03 В 4 н/о н/о +36.6 +14.0 26 +37 +37 очень
жарко
1005.4 973.2
04 23.03 В 4 н/о 8/0
[]
+37.2 +13.9 25 +38 +45 душно 1004.4 972.2
06 23.03 В 5 н/о н/о +37.4 +14.0 25 +38 +38 душно 1002.4 970.3
07 23.03 СЗ 3 н/о ливневой дождь 10/10 1000 м
[]
+36.7 +14.6 27 +38 +38 очень
душно
1002.1 970.0
09 23.03 ЮЗ 4 н/о н/о +33.4 +17.1 38 +37 +37 очень
душно
1002.5 970.4
10 23.03 Ю 7 н/о ливневой дождь {туман} 10/0 2000 м
[]
+26.2 +19.6 67 +32 +32 очень
душно
1004.3 972.1
12 23.03 ЮЗ 5 н/о н/о +27.1 +19.7 64 +33 +33 очень
душно
1004.9 972.7
13 23.03 ЮЗ 5 н/о {туман} 10/0
[]
+27.7 +18.4 57 +33 +33 очень
душно
1004.6 972.4 +40.4
15 23.03 СЗ 3 н/о н/о +28.2 +18.3 55 +33 +33 очень
душно
1004.9 972.7
16 23.03 ЮВ 1 н/о 10/0
[]
+28.0 +19.0 58 +33 +33 очень
душно
1004.9 972.7
18 23.03 СЗ 3 н/о н/о +27.2 +19.8 64 +33 +33 очень
душно
1004.0 971.8
19 23.03 ЮЗ 3 н/о 1/0
[]
+27.7 +19.2 60 +33 +33 очень
душно
1003.9 971.7
21 23.03 З 3 н/о н/о +27.4 +20.0 64 +34 +34 очень
душно
1004.6 972.4
22 23.03 З 3 н/о н/о +27.2 +19.8 64 +33 +33 очень
душно
1005.2 973.0
00 24.03 СЗ 3 н/о н/о +28.6 +19.5 58 +34 +34 очень
душно
1006.0 973.8
01 24.03 СЗ 2 н/о н/о +29.2 +19.5 56 +35 +35 очень
душно
1005.9 973.7 +24.8
03 24.03 ЮЗ 2 н/о н/о +31.6 +18.2 45 +36 +36 очень
душно
1005.5 973.3
04 24.03 В 4 н/о {туман} 10/0
[]
+32.7 +18.1 42 +37 +44 очень
душно
1004.4 972.2
06 24.03 В 3 н/о н/о +33.5 +17.6 39 +37 +37 очень
душно
1003.5 971.3
07 24.03 В 2 н/о {туман} 10/0
[]
+33.9 +17.2 37 +37 +41 очень
душно
1002.9 970.8
09 24.03 СВ 2 н/о н/о +33.6 +17.7 39 +37 +37 очень
душно
1003.5 971.3
10 24.03 С 2 н/о 9/0
[]
+33.1 +17.7 40 +37 +37 очень
душно
1004.0 971.8
12 24.03 С 2 н/о н/о +31.7 +17.9 44 +36 +36 очень
душно
1005.0 972.8
13 24.03 С 3 н/о 10/0
[]
+31.5 +17.8 44 +36 +36 очень
душно
1005.4 973.2 +34.6
15 24.03 СЗ 3 н/о н/о +28.7 +21.2 64 +36 +36 очень
душно
1005.4 973.2
16 24.03 СЗ 3 н/о 9/0
[]
+28.3 +21.3 66 +36 +36 очень
душно
1005.6 973.4
18 24.03 СЗ 3 н/о н/о +28.1 +21.1 66 +35 +35 очень
душно
1005.6 973.4
19 24.03 С 3 н/о 10/0 2000 м
[]
+27.8 +21.1 67 +35 +35 очень
душно
1005.5 973.3
21 24.03 СЗ 3 н/о н/о +27.2 +20.0 65 +33 +33 очень
душно
1006.8 974.5
22 24.03 СЗ 2 н/о 4/0
[]
+26.8 +19.9 66 +33 +33 очень
душно
1007.2 974.9
00 25.03 С 2 н/о н/о +28.2 +20.0 61 +34 +34 очень
душно
1008.2 975.9
01 25.03 В 2 н/о н/о +29.2 +19.5 56 +35 +35 очень
душно
1008.1 975.8 +26.8
03 25.03 С 4 н/о н/о +31.6 +18.9 47 +37 +37 очень
душно
1007.9 975.6
04 25.03 В 3 н/о 4/4 1500 м
[]
+33.9 +18.8 41 +39 +48 очень
душно
1007.2 974.9
06 25.03 В 3 н/о н/о +33.5 +18.4 41 +38 +38 очень
душно
1006.2 973.9
07 25.03 СВ 3 н/о 10/0 2000 м
[]
+34.2 +18.3 39 +38 +42 очень
душно
1005.7 973.5
09 25.03 ЮВ 5 н/о н/о +33.7 +16.6 36 +37 +37 очень
душно
1006.5 974.2
10 25.03 З 9 н/о дождь 10/0 2000 м
[]
+28.0 +21.5 68 +36 +36 очень
душно
1007.4 975.1
12 25.03 ЮЗ 4 н/о н/о +26.0 +21.4 76 +33 +33 очень
душно
1010.0 977.6
13 25.03 З 6 н/о {туман} 10/0
[]
+25.5 +21.6 79 +33 +33 очень
душно
1010.8 978.4 +35.1
15 25.03 ЮЗ 4 н/о н/о +26.0 +20.3 71 +32 +32 очень
душно
1010.4 978.0
16 25.03 ЮЗ 3 н/о 9/0
[]
+25.9 +20.5 72 +32 +32 очень
душно
1010.3 977.9
18 25.03 ЮВ 3 н/о н/о +25.6 +19.0 67 +31 +31 очень
душно
1009.8 977.4
19 25.03 ЮВ 4 н/о 10/0 2000 м
[]
+25.2 +18.6 67 +30 +30 душно 1009.9 977.5
21 25.03 ЮВ 4 н/о н/о +24.2 +15.7 59 +27 +27 жарко 1011.0 978.6
22 25.03 ЮВ 4 н/о н/о +24.0 +15.2 58 +27 +27 жарко 1011.1 978.7
00 26.03 ЮВ 7 н/о н/о +28.6 +13.3 39 +30 +30 жарко 1011.8 979.4
01 26.03 ЮВ 7 н/о н/о +31.1 +13.4 34 +32 +32 жарко 1011.6 979.2 +24.0
03 26.03 В 4 н/о н/о +34.6 +15.0 31 +36 +36 душно 1010.9 978.5
04 26.03 СВ 4 н/о н/о +34.9 +14.7 30 +36 +36 душно 1010.1 977.7
06 26.03 В 3 н/о н/о +36.6 +15.7 29 +38 +38 очень
душно
1008.3 976.0
07 26.03 З 3 н/о н/о +38.0 +15.7 27 +40 +40 очень
душно
1007.7 975.4

 

Местоположение метеостанции Телфер (Западная Австралия, Австралия): широта -21.71 долгота 122.21 высота над уровнем моря 292 м.

В архиве по умолчанию представлена погода в Телфере за последнюю неделю. Архивные данные за месяц целиком и за предыдущие месяцы, начиная с января 2011 года, Вы можете получить, выбрав интересующий диапазон дат из раскрывающегося списка и нажав кнопку "Ввод!".


*Определитесь, кто Вы:
робот инопланетянин человек

Внимание! Время в таблицах - всемирное. Для получения местного времени необходимо прибавить поправку, которая равна 8 ч.

Смотрите также архив погоды в соседних городах и на ближайших метеорологических станциях:

Погода в Марбл-баре (Западная Австралия, Австралия) (261 км)
Погода в Мандоре (Западная Австралия, Австралия) (262 км)
Погода в Ньюмане (Западная Австралия, Австралия) (311 км)
Погода в Порт-Хедленде (Западная Австралия, Австралия) (401 км)
Погода в Бруме (Западная Австралия, Австралия) (418 км)
Погода в Робак Запад (Западная Австралия, Австралия) (424 км)
Погода в Параберду (Западная Австралия, Австралия) (486 км)
Погода на Базе ВВС Curtin (Западная Австралия, Австралия) (489 км)
Погода в Дерби (Северная территория, Австралия) (507 км)
Погода в Фицрой-Кроссинге (Западная Австралия, Австралия) (526 км)

Пояснения к столбцам:

Ветер - указаны скорость ветра в м/с - средняя за 10 мин, порывы в срок и между сроками (в фигурных скобках) и направление, откуда дует ветер: С - северный, СВ - северо-восточный, В - восточный, ЮВ - юго-восточный, Ю - южный, ЮЗ - юго-западный, З - западный, СЗ - северо-западный.
Видимость - горизонтальная дальность видимости в метрах или километрах. При видимости от 1 до 10 км при отсутствии осадков обычно наблюдается дымка, при ухудшении видимости до 1 км и менее - туман. В сухую погоду видимость может ухудшаться дымом, пылью или мглою.
Явления - указаны атмосферные явления, наблюдавшиеся в срок или в последний час перед сроком; фигурными скобками обозначены явления, наблюдавшиеся между сроками (за 1-3 часа до срока); квадратными скобками обозначены град или гололедные отложения с указанием их диаметра в мм.
Облачность - указаны через наклонную черту общая и нижняя облачность в баллах и высота нижней границы облаков в метрах; квадратными скобками обозначены формы облаков: Ci - перистые, Cs - перисто-слоистые, Cc - перисто-кучевые, Ac - высококучевые, As - высокослоистые, Sc - слоисто-кучевые, Ns - слоисто-дождевые, Cu - кучевые, Cb - кучево-дождевые. Подробнее классификацию облаков см. в Атласе облаков (PDF).
T - Температура воздуха - температура, измеренная на высоте 2 м над землей.
Td - Температура точки росы - температура, при понижении до которой содержащийся в воздухе водяной пар достигнет насыщения.
f - Относительная влажность воздуха - влажноcть воздуха, измеренная на высоте 2 м над землей.
Te - Эффективная температура - температура, которую ощущает одетый по сезону человек в тени. Характеристика душности погоды. При расчете учитывается влияние влажности воздуха и скорости ветра на теплоощущения человека.
Tes - Эффективная температура на солнце - температура, которую ощущает человек, с поправкой на солнечный нагрев. Характеристика знойности погоды. Зависит от высоты солнца над горизонтом, облачности и скорости ветра. Ночью, в пасмурную погоду, а также при ветре 12 м/с и более поправка равна нулю.
P - Атмосферное давление - приведенное к уровню моря атмосферное давление.
Po - Атмосферное давление - измеренное на уровне метеостанции атмосферное давление.
Tmin - Минимальная температура - минимум температуры воздуха на высоте 2 м над землей.
Tmax - Максимальная температура - максимум температуры воздуха на высоте 2 м над землей.
R - Количество осадков - Количество выпавших осадков за период времени, мм. При наведении курсора мыши на число - период времени, за который выпало указанное количество осадков.
R24 - Количество осадков - Количество выпавших осадков за 24 часа, мм.
S - Снежный покров - Высота снежного покрова, см. При наведении курсора мыши на число - состояние снежного покрова и степень покрытия местности в баллах.